| time (UTC) | temp F | wind direction | speed knots | gust knots | rain 1hr in | rain 24hr in | rain mn in | humidity % | barometer mb |
| 20260503181119 | 75 | 45 | 1.7 | 2.6 | 0.00 | 0.00 | 0.00 | 52 | 1013.3 |
| 20260503180616 | 76 | 351 | 2.6 | 3.5 | 0.00 | 0.00 | 0.00 | 53 | 1013.5 |
| 20260503180114 | 75 | 283 | 0.9 | 2.6 | 0.00 | 0.00 | 0.00 | 55 | 1013.5 |
| 20260503175611 | 75 | 28 | 2.6 | 7.0 | 0.00 | 0.00 | 0.00 | 55 | 1013.5 |
| 20260503175108 | 75 | 301 | 0.9 | 3.5 | 0.00 | 0.00 | 0.00 | 55 | 1013.6 |
| 20260503174605 | 75 | 29 | 3.5 | 7.0 | 0.00 | 0.00 | 0.00 | 54 | 1013.5 |
| 20260503174101 | 74 | 338 | 0.9 | 3.5 | 0.00 | 0.00 | 0.00 | 57 | 1013.6 |
| 20260503173556 | 73 | 348 | 2.6 | 6.1 | 0.00 | 0.00 | 0.00 | 54 | 1013.6 |
| 20260503173053 | 73 | 6 | 1.7 | 5.2 | 0.00 | 0.00 | 0.00 | 56 | 1013.6 |
| 20260503172550 | 73 | 20 | 2.6 | 5.2 | 0.00 | 0.00 | 0.00 | 58 | 1013.9 |
| 20260503172047 | 72 | 337 | 1.7 | 3.5 | 0.00 | 0.00 | 0.00 | 61 | 1013.9 |
| 20260503171543 | 71 | 332 | 1.7 | 6.1 | 0.00 | 0.00 | 0.00 | 62 | 1014.0 |
| 20260503171041 | 71 | 289 | 0.9 | 6.1 | 0.00 | 0.00 | 0.00 | 65 | 1013.7 |
| 20260503170537 | 70 | 9 | 2.6 | 2.6 | 0.00 | 0.00 | 0.00 | 62 | 1013.9 |
| 20260503150930 | 54 | 1 | 0.0 | 0.0 | 0.00 | 0.00 | 0.00 | 98 | 1014.4 |
| 20260503150427 | 54 | 1 | 0.0 | 0.0 | 0.00 | 0.00 | 0.00 | 98 | 1014.3 |
| 20260503131320 | 50 | 191 | 0.0 | 0.0 | 0.00 | 0.00 | 0.00 | 97 | 1014.0 |
| 20260503130817 | 51 | 191 | 0.0 | 0.0 | 0.00 | 0.00 | 0.00 | 98 | 1013.8 |
| 20260503130315 | 51 | 192 | 0.0 | 0.0 | 0.00 | 0.00 | 0.00 | 98 | 1013.7 |
| 20260503110708 | 50 | 192 | 0.0 | 0.0 | 0.00 | 0.00 | 0.00 | 97 | 1014.3 |
| 20260503110205 | 51 | 192 | 0.0 | 0.0 | 0.00 | 0.00 | 0.00 | 97 | 1014.1 |
| 20260503100132 | 52 | 191 | 0.0 | 0.0 | 0.00 | 0.00 | 0.00 | 97 | 1014.2 |
| 20260503081521 | 52 | 205 | 0.0 | 0.0 | 0.00 | 0.00 | 0.00 | 96 | 1014.9 |
| 20260503081019 | 52 | 205 | 0.0 | 0.0 | 0.00 | 0.00 | 0.00 | 95 | 1014.8 |
| 20260503080514 | 52 | 205 | 0.0 | 0.0 | 0.00 | 0.00 | 0.00 | 95 | 1014.7 |
| 20260503072448 | 54 | 205 | 0.0 | 0.0 | 0.00 | 0.00 | 0.00 | 94 | 1014.7 |
| 20260503071945 | 54 | 205 | 0.0 | 0.0 | 0.00 | 0.00 | 0.00 | 94 | 1014.7 |
| 20260503071442 | 54 | 205 | 0.0 | 0.0 | 0.00 | 0.00 | 0.00 | 93 | 1014.7 |
| 20260503070938 | 55 | 205 | 0.0 | 0.0 | 0.00 | 0.00 | 0.00 | 93 | 1015.0 |
| 20260503070435 | 55 | 205 | 0.0 | 0.0 | 0.00 | 0.00 | 0.00 | 94 | 1015.1 |
| 20260503054849 | 58 | 210 | 1.7 | 1.7 | 0.00 | 0.02 | 0.02 | 86 | 1015.1 |
| 20260503054345 | 57 | 89 | 0.9 | 0.9 | 0.00 | 0.02 | 0.02 | 88 | 1014.9 |
| 20260503053843 | 57 | 75 | 0.9 | 0.9 | 0.00 | 0.02 | 0.02 | 89 | 1014.9 |
| 20260503053341 | 56 | 73 | 0.0 | 0.0 | 0.00 | 0.02 | 0.02 | 89 | 1015.1 |
| 20260503052837 | 57 | 73 | 0.0 | 0.0 | 0.00 | 0.02 | 0.02 | 88 | 1014.9 |
| 20260503052334 | 57 | 73 | 0.0 | 0.0 | 0.00 | 0.02 | 0.02 | 87 | 1014.7 |
| 20260503051830 | 58 | 73 | 0.0 | 0.0 | 0.00 | 0.02 | 0.02 | 86 | 1014.9 |
| 20260503051327 | 58 | 73 | 0.0 | 0.0 | 0.00 | 0.02 | 0.02 | 85 | 1014.7 |
| 20260503050823 | 58 | 18 | 0.9 | 0.9 | 0.00 | 0.02 | 0.02 | 84 | 1014.8 |
| 20260503050320 | 58 | 15 | 0.0 | 0.0 | 0.00 | 0.02 | 0.02 | 85 | 1014.7 |
| 20260503045818 | 58 | 15 | 0.0 | 0.0 | 0.00 | 0.02 | 0.02 | 85 | 1014.6 |
| 20260503045315 | 58 | 15 | 0.0 | 0.0 | 0.00 | 0.02 | 0.02 | 85 | 1014.5 |
| 20260503044811 | 58 | 15 | 0.0 | 0.0 | 0.00 | 0.02 | 0.02 | 85 | 1014.7 |
| 20260503044308 | 58 | 15 | 0.0 | 0.0 | 0.00 | 0.02 | 0.02 | 85 | 1014.8 |
| 20260503043805 | 59 | 15 | 0.0 | 0.0 | 0.00 | 0.02 | 0.02 | 84 | 1014.5 |
| 20260503043302 | 59 | 15 | 0.0 | 0.0 | 0.00 | 0.02 | 0.02 | 83 | 1014.6 |
| 20260503042758 | 59 | 15 | 0.0 | 0.0 | 0.00 | 0.02 | 0.02 | 83 | 1014.7 |
| 20260503042255 | 59 | 15 | 0.0 | 0.0 | 0.00 | 0.02 | 0.02 | 83 | 1014.8 |
| 20260503041751 | 60 | 16 | 0.0 | 0.0 | 0.00 | 0.02 | 0.02 | 82 | 1014.6 |
| 20260503041249 | 60 | 16 | 0.0 | 0.0 | 0.00 | 0.02 | 0.02 | 82 | 1014.6 |
| 20260503040746 | 60 | 4 | 0.0 | 0.0 | 0.00 | 0.02 | 0.02 | 82 | 1014.5 |
| 20260503040244 | 60 | 4 | 0.0 | 0.0 | 0.00 | 0.02 | 0.02 | 82 | 1014.3 |
| 20260503035740 | 60 | 4 | 0.0 | 0.0 | 0.00 | 0.02 | 0.02 | 81 | 1014.6 |
| 20260503035238 | 60 | 5 | 0.0 | 0.0 | 0.00 | 0.02 | 0.02 | 81 | 1014.4 |
| 20260503034735 | 60 | 5 | 0.0 | 0.0 | 0.00 | 0.02 | 0.02 | 81 | 1014.5 |
| 20260503034232 | 60 | 6 | 0.0 | 0.0 | 0.00 | 0.02 | 0.02 | 81 | 1014.6 |
| 20260503033729 | 61 | 5 | 0.0 | 0.0 | 0.00 | 0.02 | 0.02 | 79 | 1014.5 |
| 20260503033226 | 61 | 5 | 0.9 | 0.9 | 0.00 | 0.02 | 0.02 | 79 | 1014.6 |
| 20260503032725 | 60 | 74 | 1.7 | 1.7 | 0.00 | 0.02 | 0.02 | 80 | 1014.4 |
| 20260503032223 | 60 | 107 | 0.0 | 0.0 | 0.00 | 0.02 | 0.02 | 80 | 1014.7 |
| 20260503031720 | 60 | 95 | 0.0 | 0.0 | 0.00 | 0.02 | 0.02 | 81 | 1014.5 |
| 20260503031218 | 60 | 94 | 0.0 | 0.9 | 0.00 | 0.02 | 0.02 | 82 | 1014.7 |
| 20260503030714 | 60 | 83 | 0.0 | 0.9 | 0.00 | 0.02 | 0.02 | 82 | 1014.5 |
| 20260503030210 | 61 | 79 | 1.7 | 1.7 | 0.00 | 0.02 | 0.02 | 80 | 1014.4 |
| 20260503025707 | 60 | 15 | 0.0 | 0.0 | 0.00 | 0.02 | 0.02 | 80 | 1014.4 |
| 20260503025205 | 61 | 14 | 0.9 | 0.9 | 0.00 | 0.02 | 0.02 | 80 | 1014.4 |
| 20260503024701 | 62 | 13 | 0.0 | 0.0 | 0.00 | 0.02 | 0.02 | 78 | 1014.3 |
| 20260503024159 | 62 | 13 | 0.0 | 0.0 | 0.00 | 0.02 | 0.02 | 76 | 1014.4 |
| 20260503023656 | 63 | 13 | 0.9 | 0.9 | 0.00 | 0.02 | 0.02 | 74 | 1014.2 |
| 20260503023152 | 64 | 287 | 0.0 | 0.0 | 0.00 | 0.02 | 0.02 | 73 | 1014.4 |
| 20260503022648 | 64 | 290 | 0.0 | 1.7 | 0.00 | 0.02 | 0.02 | 71 | 1014.4 |
| 20260503022148 | 64 | 229 | 2.6 | 2.6 | 0.00 | 0.02 | 0.02 | 70 | 1014.3 |
| 20260503021645 | 64 | 234 | 0.9 | 2.6 | 0.00 | 0.02 | 0.02 | 71 | 1014.6 |
| 20260503021142 | 64 | 235 | 4.3 | 6.1 | 0.00 | 0.02 | 0.02 | 70 | 1014.6 |
| 20260503020639 | 64 | 267 | 1.7 | 7.0 | 0.00 | 0.02 | 0.02 | 72 | 1014.9 |
| 20260503020136 | 64 | 244 | 4.3 | 6.1 | 0.00 | 0.02 | 0.02 | 71 | 1014.9 |
| 20260503015633 | 64 | 208 | 5.2 | 8.7 | 0.00 | 0.02 | 0.02 | 71 | 1014.8 |
| 20260503015130 | 65 | 162 | 4.3 | 11.3 | 0.00 | 0.02 | 0.02 | 70 | 1015.1 |
| 20260503014626 | 65 | 218 | 5.2 | 7.0 | 0.00 | 0.02 | 0.02 | 70 | 1014.7 |
| 20260503014124 | 65 | 167 | 2.6 | 7.0 | 0.00 | 0.02 | 0.02 | 69 | 1014.4 |
| 20260503013621 | 66 | 191 | 2.6 | 5.2 | 0.00 | 0.02 | 0.02 | 68 | 1014.3 |
| 20260503013119 | 66 | 185 | 1.7 | 3.5 | 0.00 | 0.02 | 0.02 | 67 | 1014.0 |
| 20260503012616 | 66 | 164 | 1.7 | 5.2 | 0.00 | 0.02 | 0.02 | 67 | 1014.1 |
| 20260503012112 | 66 | 166 | 1.7 | 3.5 | 0.00 | 0.02 | 0.02 | 67 | 1014.0 |
| 20260503011609 | 67 | 183 | 1.7 | 3.5 | 0.00 | 0.02 | 0.02 | 67 | 1013.7 |
| 20260503011106 | 67 | 190 | 2.6 | 2.6 | 0.00 | 0.02 | 0.02 | 65 | 1014.1 |
| 20260503010602 | 67 | 205 | 1.7 | 3.5 | 0.00 | 0.02 | 0.02 | 66 | 1013.9 |
| 20260503010100 | 68 | 222 | 2.6 | 3.5 | 0.00 | 0.02 | 0.02 | 64 | 1013.9 |
| 20260503005557 | 69 | 134 | 1.7 | 2.6 | 0.00 | 0.02 | 0.02 | 61 | 1014.0 |
| 20260503005054 | 69 | 297 | 0.0 | 0.0 | 0.00 | 0.02 | 0.02 | 62 | 1013.8 |
| 20260503004550 | 69 | 297 | 0.0 | 0.9 | 0.00 | 0.02 | 0.02 | 56 | 1013.8 |
| 20260503004049 | 69 | 297 | 0.9 | 0.9 | 0.00 | 0.02 | 0.02 | 62 | 1013.7 |
| 20260503003545 | 69 | 297 | 0.0 | 0.9 | 0.00 | 0.02 | 0.02 | 60 | 1013.7 |
| 20260503003042 | 70 | 297 | 0.9 | 1.7 | 0.00 | 0.02 | 0.02 | 56 | 1013.7 |
| 20260503002539 | 70 | 283 | 0.0 | 0.0 | 0.00 | 0.02 | 0.02 | 56 | 1013.9 |
| 20260503002036 | 70 | 282 | 0.0 | 1.7 | 0.00 | 0.02 | 0.02 | 56 | 1013.8 |
| 20260503001532 | 70 | 283 | 0.0 | 1.7 | 0.00 | 0.02 | 0.02 | 56 | 1013.8 |
| 20260503001030 | 70 | 299 | 0.9 | 3.5 | 0.00 | 0.02 | 0.02 | 54 | 1013.8 |
| 20260503000527 | 69 | 317 | 0.0 | 2.6 | 0.00 | 0.02 | 0.02 | 57 | 1013.6 |
| 20260503000024 | 70 | 290 | 0.9 | 2.6 | 0.00 | 0.02 | 0.02 | 54 | 1013.7 |
| 20260502235520 | 70 | 262 | 0.0 | 1.7 | 0.00 | 0.02 | 0.02 | 58 | 1013.8 |
| 20260502235018 | 70 | 306 | 0.9 | 2.6 | 0.00 | 0.02 | 0.02 | 59 | 1013.6 |
| 20260502234514 | 70 | 298 | 0.0 | 0.9 | 0.00 | 0.02 | 0.02 | 55 | 1013.8 |
| 20260502234012 | 69 | 287 | 0.9 | 1.7 | 0.00 | 0.02 | 0.02 | 58 | 1014.2 |
| 20260502233512 | 69 | 288 | 3.5 | 3.5 | 0.00 | 0.02 | 0.02 | 55 | 1014.1 |
| 20260502233010 | 70 | 284 | 1.7 | 2.6 | 0.00 | 0.02 | 0.02 | 55 | 1014.2 |
| 20260502232506 | 71 | 31 | 1.7 | 2.6 | 0.00 | 0.02 | 0.02 | 53 | 1014.2 |
| 20260502232003 | 71 | 62 | 0.9 | 0.9 | 0.00 | 0.02 | 0.02 | 56 | 1014.4 |
| 20260502231500 | 71 | 260 | 1.7 | 3.5 | 0.00 | 0.02 | 0.02 | 53 | 1014.4 |
| 20260502230958 | 70 | 262 | 0.9 | 2.6 | 0.00 | 0.02 | 0.02 | 54 | 1014.4 |
| 20260502230455 | 69 | 58 | 0.0 | 0.9 | 0.00 | 0.02 | 0.02 | 56 | 1014.4 |
| 20260502225953 | 70 | 337 | 0.9 | 2.6 | 0.00 | 0.02 | 0.02 | 55 | 1014.6 |
| 20260502225449 | 70 | 12 | 0.9 | 1.7 | 0.00 | 0.02 | 0.02 | 58 | 1014.5 |
| 20260502224946 | 69 | 263 | 1.7 | 3.5 | 0.00 | 0.02 | 0.02 | 57 | 1014.5 |
| 20260502224442 | 69 | 2 | 1.7 | 2.6 | 0.00 | 0.02 | 0.02 | 56 | 1014.6 |
| 20260502223939 | 69 | 295 | 1.7 | 2.6 | 0.00 | 0.02 | 0.02 | 56 | 1014.8 |
| 20260502223437 | 68 | 27 | 0.9 | 0.9 | 0.00 | 0.02 | 0.02 | 60 | 1014.7 |
| 20260502222935 | 67 | 278 | 1.7 | 1.7 | 0.00 | 0.02 | 0.02 | 60 | 1015.1 |
| 20260502222432 | 67 | 289 | 0.9 | 2.6 | 0.00 | 0.02 | 0.02 | 60 | 1014.9 |
| 20260502221928 | 66 | 277 | 0.9 | 0.9 | 0.00 | 0.02 | 0.02 | 61 | 1015.2 |
| 20260502221424 | 66 | 272 | 1.7 | 1.7 | 0.00 | 0.02 | 0.02 | 62 | 1015.3 |
| 20260502220922 | 66 | 290 | 1.7 | 1.7 | 0.00 | 0.02 | 0.02 | 63 | 1015.1 |
| 20260502220417 | 66 | 293 | 1.7 | 1.7 | 0.00 | 0.02 | 0.02 | 61 | 1015.5 |
| 20260502215914 | 66 | 313 | 0.0 | 0.0 | 0.00 | 0.02 | 0.02 | 63 | 1015.3 |
| 20260502215412 | 66 | 254 | 6.1 | 7.8 | 0.00 | 0.02 | 0.02 | 60 | 1015.1 |
| 20260502214908 | 67 | 51 | 0.0 | 3.5 | 0.00 | 0.02 | 0.02 | 61 | 1015.4 |
| 20260502214405 | 67 | 43 | 2.6 | 2.6 | 0.00 | 0.02 | 0.02 | 62 | 1015.4 |
| 20260502213902 | 67 | 284 | 4.3 | 5.2 | 0.00 | 0.02 | 0.02 | 59 | 1015.7 |
| 20260502213359 | 67 | 224 | 0.9 | 0.9 | 0.00 | 0.02 | 0.02 | 63 | 1015.8 |
| 20260502212858 | 65 | 353 | 1.7 | 2.6 | 0.00 | 0.02 | 0.02 | 66 | 1015.7 |
| 20260502212356 | 65 | 26 | 1.7 | 2.6 | 0.00 | 0.02 | 0.02 | 65 | 1015.8 |
| 20260502211853 | 65 | 24 | 1.7 | 2.6 | 0.00 | 0.02 | 0.02 | 65 | 1016.0 |
| 20260502211348 | 65 | 289 | 3.5 | 3.5 | 0.00 | 0.02 | 0.02 | 62 | 1016.0 |
| 20260502210846 | 65 | 286 | 1.7 | 2.6 | 0.00 | 0.02 | 0.02 | 63 | 1016.0 |
| 20260502210343 | 64 | 349 | 1.7 | 2.6 | 0.00 | 0.02 | 0.02 | 64 | 1016.1 |
| 20260502205841 | 64 | 307 | 3.5 | 5.2 | 0.00 | 0.02 | 0.02 | 65 | 1016.2 |
| 20260502205336 | 64 | 346 | 1.7 | 6.1 | 0.00 | 0.02 | 0.02 | 67 | 1016.5 |
| 20260502204834 | 63 | 109 | 0.0 | 1.7 | 0.00 | 0.02 | 0.02 | 68 | 1016.5 |
| 20260502204331 | 63 | 308 | 0.0 | 0.9 | 0.00 | 0.02 | 0.02 | 65 | 1016.5 |
| 20260502203828 | 62 | 278 | 3.5 | 3.5 | 0.00 | 0.02 | 0.02 | 69 | 1016.4 |
| 20260502203326 | 62 | 30 | 1.7 | 2.6 | 0.00 | 0.02 | 0.02 | 68 | 1016.6 |
| 20260502202826 | 62 | 60 | 1.7 | 1.7 | 0.00 | 0.02 | 0.02 | 69 | 1016.8 |
| 20260502202324 | 62 | 56 | 0.9 | 0.9 | 0.00 | 0.02 | 0.02 | 68 | 1016.7 |
| 20260502201821 | 61 | 205 | 0.0 | 2.6 | 0.00 | 0.02 | 0.02 | 71 | 1016.9 |
| 20260502201317 | 61 | 250 | 1.7 | 2.6 | 0.00 | 0.02 | 0.02 | 70 | 1016.9 |
| 20260502200814 | 60 | 254 | 0.9 | 2.6 | 0.00 | 0.02 | 0.02 | 70 | 1016.9 |
| 20260502200310 | 61 | 262 | 2.6 | 2.6 | 0.00 | 0.02 | 0.02 | 68 | 1017.0 |
| 20260502195808 | 61 | 5 | 0.0 | 1.7 | 0.00 | 0.02 | 0.02 | 70 | 1017.2 |
| 20260502195305 | 60 | 56 | 0.0 | 0.0 | 0.00 | 0.02 | 0.02 | 75 | 1017.1 |
| 20260502194801 | 59 | 273 | 1.7 | 2.6 | 0.00 | 0.02 | 0.02 | 73 | 1017.1 |
| 20260502194258 | 58 | 273 | 0.0 | 1.7 | 0.00 | 0.02 | 0.02 | 73 | 1017.4 |
| 20260502193754 | 59 | 273 | 0.9 | 2.6 | 0.00 | 0.02 | 0.02 | 71 | 1017.3 |
| 20260502193251 | 58 | 301 | 2.6 | 3.5 | 0.00 | 0.02 | 0.02 | 73 | 1017.0 |
| 20260502192751 | 59 | 277 | 1.7 | 2.6 | 0.00 | 0.02 | 0.02 | 74 | 1017.2 |
| 20260502192249 | 58 | 292 | 0.9 | 1.7 | 0.00 | 0.02 | 0.02 | 74 | 1017.3 |
| 20260502191746 | 58 | 298 | 0.0 | 0.9 | 0.00 | 0.02 | 0.02 | 76 | 1017.3 |
| 20260502191244 | 58 | 308 | 1.7 | 3.5 | 0.00 | 0.02 | 0.02 | 74 | 1017.5 |
| 20260502190741 | 58 | 262 | 0.9 | 1.7 | 0.00 | 0.02 | 0.02 | 76 | 1017.5 |
| 20260502190238 | 57 | 239 | 0.9 | 1.7 | 0.00 | 0.02 | 0.02 | 76 | 1017.8 |
| 20260502185738 | 57 | 273 | 1.7 | 3.5 | 0.00 | 0.02 | 0.02 | 78 | 1018.0 |
| 20260502185235 | 57 | 279 | 1.7 | 2.6 | 0.00 | 0.02 | 0.02 | 74 | 1017.9 |
| 20260502184731 | 56 | 346 | 0.0 | 0.9 | 0.00 | 0.02 | 0.02 | 77 | 1017.8 |
| 20260502184227 | 56 | 354 | 1.7 | 1.7 | 0.00 | 0.02 | 0.02 | 76 | 1018.1 |
| 20260502183724 | 56 | 196 | 0.0 | 0.0 | 0.00 | 0.02 | 0.02 | 79 | 1018.0 |
| 20260502183220 | 56 | 284 | 0.9 | 1.7 | 0.00 | 0.02 | 0.02 | 77 | 1018.0 |
| 20260502182715 | 56 | 342 | 1.7 | 2.6 | 0.00 | 0.02 | 0.02 | 79 | 1017.8 |
| 20260502182211 | 55 | 26 | 0.0 | 2.6 | 0.00 | 0.02 | 0.02 | 81 | 1017.5 |
| 20260502181709 | 55 | 22 | 1.7 | 2.6 | 0.00 | 0.02 | 0.02 | 80 | 1017.5 |